Groton, CT

4:23 PM EDT on May 23, 2017 (GMT -0400)
Groton-New London

Weather History for KGON - November, 2012

Change the Weather History Date:

Thursday, November 8, 2012

  Actual Average Record
Temperature  
Mean Temperature 38 °F -  
Max Temperature 43 °F 53 °F 68 °F (2011)
Min Temperature 33 °F 36 °F 19 °F (1960)
Degree Days  
Heating Degree Days 27    
Moisture  
Dew Point 31 °F    
Average Humidity 74    
Maximum Humidity 83    
Minimum Humidity 62    
Precipitation  
Precipitation 0.01 in - - ()
Sea Level Pressure  
Sea Level Pressure 29.63 in    
Wind  
Wind Speed 24 mph (NNW)    
Max Wind Speed 30 mph    
Max Gust Speed 48 mph    
Visibility 9 miles    
Events Rain    
Averages and records for this station are not official NWS values.
T = Trace of Precipitation, MM = Missing Value Source: NWS Daily Summary

Daily Weather History Graph

Daily Weather History Graph

Search for Another Location

Airport or City:

Trip Planner

Search our weather history database for the weather conditions in past years. The results will help you decide how hot, cold, wet, or windy it might be!

Date:

Astronomy

Nov. 08, 2012 Rise Set
Actual Time 6:28 AM EST 4:34 PM EST
Civil Twilight 5:59 AM EST 5:04 PM EST
Nautical Twilight 5:26 AM EST 5:37 PM EST
Astronomical Twilight 4:53 AM EST 6:09 PM EST
Moon 12:17 AM EST (11/8) 1:17 PM EST (11/8)
Length of Visible Light 11h 04m
Length of Day
10h 06m
Waning Crescent, 33% of the Moon is Illuminated
Nov 8
Waning Crescent
Nov 13
New
Nov 20
First Quarter
Nov 28
Full
Dec 6
Last Quarter

Hourly Weather History & Observations

Time (EST) Temp. Windchill Dew Point Humidity Pressure Visibility Wind Dir Wind Speed Gust Speed Precip Events Conditions
12:09 AM 33.8 °F 20.3 °F 28.4 °F 81% 29.61 in 10.0 mi North 28.8 mph 42.6 mph N/A   Overcast
12:56 AM 35.1 °F 23.3 °F 28.9 °F 78% 29.60 in 10.0 mi North 23.0 mph 41.4 mph N/A   Overcast
1:28 AM 35.6 °F 22.7 °F 28.4 °F 75% 29.60 in 10.0 mi North 28.8 mph 42.6 mph N/A   Overcast
1:56 AM 35.6 °F 23.2 °F 28.4 °F 75% 29.60 in 10.0 mi North 26.5 mph 42.6 mph N/A   Overcast
2:41 AM 35.6 °F 24.0 °F 28.4 °F 75% 29.58 in 10.0 mi North 23.0 mph 39.1 mph N/A   Overcast
2:54 AM 35.6 °F 22.5 °F 28.4 °F 75% 29.58 in 10.0 mi North 29.9 mph 40.3 mph N/A   Overcast
2:56 AM 36.0 °F 24.2 °F 28.9 °F 76% 29.58 in 10.0 mi North 24.2 mph 40.3 mph N/A   Overcast
3:56 AM 36.0 °F 24.2 °F 30.0 °F 79% 29.57 in 8.0 mi North 24.2 mph 48.3 mph 0.00 in Rain Light Rain
4:56 AM 37.0 °F 26.4 °F 30.0 °F 76% 29.57 in 10.0 mi North 20.7 mph 33.4 mph 0.00 in   Overcast
5:56 AM 37.0 °F 26.7 °F 30.0 °F 76% 29.57 in 10.0 mi North 19.6 mph 39.1 mph 0.00 in   Overcast
6:56 AM 37.9 °F 28.2 °F 30.9 °F 76% 29.58 in 10.0 mi North 18.4 mph 38.0 mph N/A   Overcast
7:35 AM 37.4 °F 26.4 °F 32.0 °F 81% 29.58 in 7.0 mi North 23.0 mph 35.7 mph N/A Rain Light Rain
7:56 AM 37.9 °F 27.1 °F 32.0 °F 79% 29.58 in 4.0 mi North 23.0 mph 34.5 mph 0.01 in Rain Light Rain
8:04 AM 37.4 °F 25.9 °F 32.0 °F 81% 29.57 in 4.0 mi North 25.3 mph 35.7 mph 0.00 in Rain Rain
8:56 AM 39.0 °F 28.3 °F 33.1 °F 79% 29.59 in 9.0 mi NNW 24.2 mph 34.5 mph 0.00 in   Overcast
9:56 AM 37.9 °F 27.1 °F 33.1 °F 83% 29.59 in 8.0 mi NNW 23.0 mph 34.5 mph 0.00 in Rain Light Rain
10:56 AM 39.9 °F 29.7 °F 33.1 °F 77% 29.58 in 10.0 mi North 23.0 mph 33.4 mph 0.00 in   Overcast
11:56 AM 41.0 °F 30.2 °F 32.0 °F 70% 29.57 in 10.0 mi North 27.6 mph 39.1 mph 0.00 in   Overcast
12:56 PM 41.0 °F 30.7 °F 33.1 °F 73% 29.58 in 8.0 mi NNW 25.3 mph 35.7 mph 0.00 in Rain Light Rain
1:56 PM 43.0 °F 33.3 °F 33.1 °F 68% 29.59 in 10.0 mi NNW 25.3 mph 42.6 mph 0.00 in   Overcast
2:56 PM 43.0 °F 32.9 °F 32.0 °F 65% 29.62 in 10.0 mi NNW 27.6 mph 34.5 mph N/A   Overcast
3:56 PM 41.0 °F 31.4 °F 32.0 °F 70% 29.65 in 10.0 mi North 21.9 mph 34.5 mph N/A   Overcast
4:56 PM 41.0 °F 31.9 °F 32.0 °F 70% 29.67 in 10.0 mi NNW 19.6 mph 35.7 mph N/A   Overcast
5:03 PM 41.0 °F 31.9 °F 32.0 °F 70% 29.67 in 10.0 mi North 19.6 mph 28.8 mph N/A   Overcast
5:56 PM 39.9 °F 29.7 °F 32.0 °F 73% 29.70 in 10.0 mi NNW 23.0 mph 29.9 mph N/A   Mostly Cloudy
6:56 PM 39.9 °F 30.8 °F 30.9 °F 70% 29.73 in 10.0 mi NNW 18.4 mph 25.3 mph N/A   Mostly Cloudy
7:56 PM 39.9 °F 31.4 °F 30.0 °F 68% 29.74 in 10.0 mi NNW 16.1 mph 27.6 mph N/A   Overcast
8:56 PM 39.9 °F 31.8 °F 30.0 °F 68% 29.75 in 10.0 mi NNW 15.0 mph 25.3 mph N/A   Overcast
9:56 PM 41.0 °F 32.2 °F 28.9 °F 62% 29.77 in 10.0 mi NNW 18.4 mph 25.3 mph N/A   Overcast
10:56 PM 39.9 °F 31.4 °F 30.0 °F 68% 29.78 in 10.0 mi NNW 16.1 mph 24.2 mph N/A   Mostly Cloudy
11:56 PM 39.9 °F 32.1 °F 30.0 °F 68% 29.79 in 10.0 mi NW 13.8 mph 18.4 mph N/A   Mostly Cloudy